• Join FlightAware (Why Join?)
  • Login
  • US Flag 
05:26AM EST


 

Airport Tracker/Info


-or-


 

Live Flight TrackerFlight Track Log ✈ AAL1432 ✈ 03-Nov-2013 ✈ KDFW - KDCA

Flight Track Log - Related Links

Times and Time Zones

All times are in EST time to prevent confusion due to time zone crossing. See the AAL1432 flight status page for this flight to view local times or setup timezone preferences in your user account.

Time Position Orientation Groundspeed Altitude Reporting Facility
EST Latitude Longitude Course Direction KTS MPH feet Rate Location/Type
09:28PM 32.8820 -97.0300 180° South 165 190 1,100  Level FlightAware
09:28PM 32.8595 -97.0288 177° South 167 192 2,300 1,920 Climbing FlightAware ADS-B
09:29PM 32.8474 -97.0250 165° South 189 217 2,700 1,672 Climbing FlightAware ADS-B
09:29PM 32.8040 -97.0050 159° South 228 262 4,000 2,100 Climbing FlightAware
09:30PM 32.7840 -96.9930 153° Southeast 237 273 4,800 2,170 Climbing FlightAware
09:30PM 32.7713 -96.9616 116° Southeast 265 305 5,700 2,043 Climbing FlightAware ADS-B
09:31PM 32.7660 -96.9374 105° East 276 318 6,400 2,262 Climbing FlightAware ADS-B
09:31PM 32.7668 -96.8729 89° East 297 342 8,000 2,323 Climbing FlightAware ADS-B
09:32PM 32.7691 -96.8396 85° East 307 353 8,800 2,429 Climbing FlightAware ADS-B
09:32PM 32.7812 -96.7998 70° East 314 361 9,700 1,966 Climbing FlightAware ADS-B
09:33PM 32.8014 -96.7503 64° Northeast 336 387 10,700 1,433 Climbing FlightAware ADS-B
09:33PM 32.8281 -96.6846 64° Northeast 370 426 11,300 2,282 Climbing FlightAware ADS-B
09:34PM 32.8582 -96.6103 64° Northeast 370 426 13,400 2,854 Climbing FlightAware ADS-B
09:34PM 32.8889 -96.5341 64° Northeast 378 435 15,200 2,364 Climbing FlightAware ADS-B
09:35PM 32.9360 -96.4170 64° Northeast 410 472 17,300 1,923 Climbing FlightAware
09:36PM 32.9486 -96.3859 64° Northeast 415 478 17,700 1,846 Climbing FlightAware ADS-B
09:36PM 32.9720 -96.3080 70° East 422 486 18,900 2,156 Climbing FlightAware
09:37PM 32.9840 -96.2330 79° East 430 495 20,000 1,685 Climbing FlightAware
09:38PM 33.0020 -96.0990 81° East 456 525 21,400 1,468 Climbing FlightAware
09:38PM 33.0150 -96.0020 81° East 472 543 22,300 1,108 Climbing FlightAware
09:39PM 33.0250 -95.9330 80° East 489 563 22,600 1,091 Climbing FlightAware
09:40PM 33.0470 -95.7710 81° East 507 583 23,900 1,393 Climbing FlightAware
09:41PM 33.0670 -95.6230 81° East 519 597 25,200 1,500 Climbing FlightAware
09:41PM 33.0760 -95.5680 79° East 523 602 25,700 1,535 Climbing FlightAware
09:42PM 33.1290 -95.3830 71° East 532 612 27,400 1,592 Climbing FlightAware
09:43PM 33.1560 -95.2920 70° East 531 611 28,300 1,575 Climbing FlightAware
09:44PM 33.1960 -95.1600 70° East 530 610 29,500 1,360 Climbing FlightAware
09:44PM 33.2160 -95.0920 71° East 532 612 30,000 1,765 Climbing FlightAware
09:45PM 33.2650 -94.9290 70° East 519 597 32,000 1,918 Climbing FlightAware
09:46PM 33.2962 -94.8219 71° East 517 595 33,100 1,500 Climbing FlightAware ADS-B
09:46PM 33.3217 -94.7349 71° East 516 594 33,800 1,219 Climbing FlightAware ADS-B
09:47PM 33.3462 -94.6518 71° East 519 597 34,400 1,079 Climbing FlightAware ADS-B
09:48PM 33.3920 -94.4950 71° East 521 600 35,400 990 Climbing FlightAware
09:48PM 33.4270 -94.3750 71° East 525 604 36,100 828 Climbing FlightAware
09:50PM 33.4840 -94.1770 71° East 531 611 37,000 716 Climbing FlightAware
09:50PM 33.5160 -94.0690 70° East 534 615 37,400 357 Climbing FlightAware
09:51PM 33.5560 -93.9610 66° East 532 612 37,500 56 Climbing FlightAware
09:52PM 33.6080 -93.8210 66° East 532 612 37,500  Level FlightAware
09:53PM 33.6490 -93.7100 66° East 532 612 37,500  Level FlightAware
09:54PM 33.7010 -93.5700 66° East 532 612 37,500 536 Level FlightAware
09:56PM 33.7780 -93.3910 63° Northeast 527 606 39,000 539 Climbing FlightAware
09:57PM 33.8300 -93.2560 65° Northeast 527 606 39,000  Level FlightAware
09:57PM 33.8700 -93.1520 65° Northeast 527 606 39,000  Level FlightAware
10:00PM 34.1000 -92.5390 65° Northeast 522 601 39,000  Level FlightAware
10:00PM 34.1430 -92.4210 66° East 521 600 39,000  Level FlightAware
10:01PM 34.1780 -92.3260 66° East 520 598 39,000  Level FlightAware
10:02PM 34.2370 -92.1670 66° East 518 596 39,000  Level FlightAware
10:03PM 34.2860 -92.0350 66° East 517 595 39,000  Level FlightAware
10:03PM 34.3150 -91.9540 67° East 516 594 39,000  Level FlightAware
10:05PM 34.3770 -91.7840 66° East 514 592 39,000  Level FlightAware
10:05PM 34.4290 -91.6430 66° East 513 590 39,000  Level FlightAware
10:06PM 34.4890 -91.4780 66° East 512 589 39,000  Level FlightAware
10:07PM 34.5230 -91.3810 67° East 512 589 39,000  Level FlightAware
10:08PM 34.5500 -91.3070 66° East 512 589 39,000  Level FlightAware
10:08PM 34.6020 -91.1620 66° East 512 589 39,000  Level FlightAware
10:09PM 34.6520 -91.0200 67° East 512 589 39,000  Level FlightAware
10:10PM 34.6970 -90.8940 66° East 513 590 39,000  Level FlightAware
10:11PM 34.7210 -90.8280 66° East 514 592 39,000  Level FlightAware
10:11PM 34.7680 -90.6930 67° East 513 590 39,000  Level FlightAware
10:12PM 34.7940 -90.6200 67° East 511 588 39,000  Level FlightAware
10:12PM 34.8210 -90.5450 66° East 509 586 39,000  Level FlightAware
10:13PM 34.8490 -90.4640 67° East 509 586 39,000  Level FlightAware
10:14PM 34.9120 -90.2820 67° East 507 583 39,000  Level FlightAware
10:15PM 34.9590 -90.1470 67° East 505 581 39,000  Level FlightAware
10:15PM 34.9900 -90.0580 67° East 505 581 39,000  Level FlightAware
10:17PM 35.0390 -89.9150 67° East 505 581 39,000  Level FlightAware
10:18PM 35.0860 -89.7810 67° East 505 581 39,000  Level FlightAware
10:18PM 35.1040 -89.7270 68° East 505 581 39,000  Level FlightAware
10:19PM 35.1510 -89.5930 67° East 505 581 39,000  Level FlightAware
10:19PM 35.1700 -89.5390 67° East 505 581 39,000  Level FlightAware
10:20PM 35.2070 -89.4320 67° East 505 581 39,000  Level FlightAware
10:21PM 35.2530 -89.2980 67° East 505 581 39,000  Level FlightAware
10:21PM 35.2630 -89.2710 66° East 505 581 39,000  Level FlightAware
10:22PM 35.2910 -89.1900 67° East 505 581 39,000  Level FlightAware
10:23PM 35.3290 -89.0810 67° East 505 581 39,000  Level FlightAware
10:23PM 35.3470 -89.0270 68° East 505 581 39,000  Level FlightAware
10:24PM 35.3840 -88.9190 67° East 505 581 39,000  Level FlightAware
10:25PM 35.4330 -88.7800 67° East 505 581 39,000  Level FlightAware
10:28PM 35.7050 -88.0010 67° East 509 586 39,000  Level FlightAware
10:29PM 35.7530 -87.8560 68° East 509 586 39,000  Level FlightAware
10:30PM 35.7840 -87.7620 68° East 509 586 39,000  Level FlightAware
10:31PM 35.8290 -87.6280 67° East 508 585 39,000  Level FlightAware
10:31PM 35.8640 -87.5210 68° East 507 583 39,000  Level FlightAware
10:32PM 35.9030 -87.4030 68° East 506 582 39,000  Level FlightAware
10:33PM 35.9427 -87.2828 68° East 507 583 39,000  Level FlightAware ADS-B
10:33PM 35.9689 -87.2029 68° East 506 582 39,000  Level FlightAware ADS-B
10:34PM 35.9959 -87.1198 68° East 506 582 39,000  Level FlightAware ADS-B
10:34PM 36.0244 -87.0323 68° East 506 582 39,000  Level FlightAware ADS-B
10:35PM 36.0507 -86.9511 68° East 506 582 39,000  Level FlightAware ADS-B
10:36PM 36.0775 -86.8684 68° East 506 582 39,000  Level FlightAware ADS-B
10:36PM 36.1102 -86.7669 68° East 505 581 39,000  Level FlightAware ADS-B
10:37PM 36.1464 -86.6554 68° East 505 581 39,000  Level FlightAware ADS-B
10:37PM 36.1729 -86.5741 68° East 505 581 39,000  Level FlightAware ADS-B
10:38PM 36.1992 -86.4930 68° East 505 581 39,000  Level FlightAware ADS-B
10:38PM 36.2254 -86.4119 68° East 505 581 39,000  Level FlightAware ADS-B
10:39PM 36.2531 -86.3258 68° East 505 581 39,000  Level FlightAware ADS-B
10:40PM 36.3165 -86.1285 68° East 505 581 39,000  Level FlightAware ADS-B
10:41PM 36.3440 -86.0422 68° East 506 582 39,000  Level FlightAware ADS-B
10:41PM 36.3837 -85.9170 68° East 505 581 39,000  Level FlightAware ADS-B
10:42PM 36.4138 -85.8219 69° East 505 581 39,000  Level FlightAware ADS-B
10:43PM 36.4430 -85.7290 69° East 504 580 39,000  Level FlightAware
10:43PM 36.4612 -85.6718 68° East 505 581 39,000  Level FlightAware ADS-B
10:43PM 36.4876 -85.5878 69° East 502 578 39,000  Level FlightAware ADS-B
10:44PM 36.5138 -85.5038 69° East 502 578 39,000  Level FlightAware ADS-B
10:45PM 36.5436 -85.4079 69° East 500 575 39,000  Level FlightAware ADS-B
10:45PM 36.5698 -85.3236 69° East 500 575 39,000  Level FlightAware ADS-B
10:46PM 36.5950 -85.2426 69° East 497 572 39,000  Level FlightAware ADS-B
10:46PM 36.6207 -85.1598 69° East 496 571 39,000  Level FlightAware ADS-B
10:47PM 36.6454 -85.0798 69° East 495 570 39,000  Level FlightAware ADS-B
10:47PM 36.6815 -84.9623 69° East 494 568 39,000  Level FlightAware ADS-B
10:48PM 36.7083 -84.8751 69° East 494 568 39,000  Level FlightAware ADS-B
10:48PM 36.7326 -84.7953 69° East 495 570 39,000  Level FlightAware ADS-B
10:49PM 36.7596 -84.7068 69° East 496 571 39,000  Level FlightAware ADS-B
10:49PM 36.7847 -84.6244 69° East 497 572 39,000  Level FlightAware ADS-B
10:50PM 36.8092 -84.5435 69° East 498 573 39,000  Level FlightAware ADS-B
10:50PM 36.8334 -84.4629 69° East 499 574 39,000  Level FlightAware ADS-B
10:51PM 36.8578 -84.3818 69° East 499 574 39,000  Level FlightAware ADS-B
10:51PM 36.8822 -84.3006 69° East 499 574 39,000  Level FlightAware ADS-B
10:52PM 36.9065 -84.2197 69° East 498 573 39,000  Level FlightAware ADS-B
10:53PM 36.9309 -84.1377 70° East 498 573 39,000  Level FlightAware ADS-B
10:53PM 36.9553 -84.0553 70° East 498 573 39,000  Level FlightAware ADS-B
10:54PM 36.9801 -83.9720 70° East 499 574 39,000  Level FlightAware ADS-B
10:54PM 37.0042 -83.8900 70° East 500 575 39,000  Level FlightAware ADS-B
10:55PM 37.0291 -83.8054 70° East 501 577 39,000  Level FlightAware ADS-B
10:55PM 37.0533 -83.7233 70° East 503 579 39,000  Level FlightAware ADS-B
10:56PM 37.0885 -83.6027 70° East 503 579 39,000  Level FlightAware ADS-B
10:56PM 37.1126 -83.5195 70° East 503 579 39,000  Level FlightAware ADS-B
10:57PM 37.1363 -83.4376 70° East 499 574 39,000  Level FlightAware ADS-B
10:57PM 37.1608 -83.3532 70° East 498 573 39,000  Level FlightAware ADS-B
10:58PM 37.1850 -83.2697 70° East 499 574 39,000  Level FlightAware ADS-B
10:58PM 37.2172 -83.1704 68° East 496 571 39,000  Level FlightAware ADS-B
10:59PM 37.2545 -83.0567 68° East 492 566 39,000  Level FlightAware ADS-B
11:00PM 37.2808 -82.9764 68° East 492 566 39,000  Level FlightAware ADS-B
11:01PM 37.3377 -82.8000 68° East 492 566 39,000  Level FlightAware ADS-B
11:02PM 37.3802 -82.6677 68° East 493 567 39,000  Level FlightAware ADS-B
11:02PM 37.4068 -82.5842 68° East 491 565 39,000  Level FlightAware ADS-B
11:03PM 37.4380 -82.4868 68° East 490 564 39,000  Level FlightAware ADS-B
11:04PM 37.4840 -82.3430 68° East 489 563 39,000  Level FlightAware
11:05PM 37.5250 -82.2100 69° East 489 563 39,000  Level FlightAware
11:05PM 37.5501 -82.1303 68° East 490 564 39,000  Level FlightAware ADS-B
11:06PM 37.5821 -82.0286 68° East 489 563 39,000  Level FlightAware ADS-B
11:07PM 37.6570 -81.7870 69° East 487 560 39,000  Level FlightAware
11:08PM 37.7000 -81.6490 68° East 487 560 39,000  Level FlightAware
11:09PM 37.7293 -81.5550 68° East 488 562 39,000  Level FlightAware ADS-B
11:09PM 37.7589 -81.4585 69° East 490 564 39,000  Level FlightAware ADS-B
11:10PM 37.7839 -81.3766 69° East 491 565 39,000  Level FlightAware ADS-B
11:10PM 37.8085 -81.2958 69° East 492 566 39,000  Level FlightAware ADS-B
11:11PM 37.8348 -81.2096 69° East 494 568 39,000  Level FlightAware ADS-B
11:12PM 37.8900 -81.0270 69° East 497 572 39,000  Level FlightAware
11:13PM 37.9261 -80.9072 69° East 496 571 39,000  Level FlightAware ADS-B
11:14PM 37.9690 -80.7640 69° East 501 577 39,000  Level FlightAware
11:14PM 37.9850 -80.7099 69° East 501 577 39,000  Level FlightAware ADS-B
11:14PM 37.9966 -80.6666 71° East 502 578 39,000  Level FlightAware ADS-B
11:15PM 38.0200 -80.5740 72° East 502 578 39,000  Level FlightAware
11:16PM 38.0620 -80.4110 72° East 502 578 39,000  Level FlightAware
11:16PM 38.0960 -80.2770 72° East 503 579 39,000  Level FlightAware
11:17PM 38.1250 -80.1640 72° East 502 578 39,000  Level FlightAware
11:18PM 38.1570 -80.0400 72° East 503 579 39,000  Level FlightAware
11:19PM 38.2000 -79.8710 72° East 505 581 39,000 -389 Level FlightAware
11:20PM 38.2340 -79.7360 72° East 502 578 38,300 -1,636 Descending FlightAware
11:20PM 38.2630 -79.6220 72° East 501 577 36,600 -2,800 Descending FlightAware
11:21PM 38.2980 -79.4820 72° East 508 585 34,100 -3,027 Descending FlightAware
11:22PM 38.3410 -79.3090 72° East 512 589 31,000 -3,027 Descending FlightAware
11:23PM 38.3770 -79.1600 73° East 494 568 28,400 -2,712 Descending FlightAware
11:24PM 38.4120 -79.0180 72° East 475 547 26,300 -1,789 Descending FlightAware
11:25PM 38.4500 -78.8670 72° East 461 531 25,000 -2,204 Descending FlightAware
11:26PM 38.4740 -78.7670 73° East 440 506 22,700 -2,700 Descending FlightAware
11:27PM 38.5100 -78.6150 73° East 419 482 20,500 -1,962 Descending FlightAware
11:27PM 38.5330 -78.5210 73° East 401 461 19,300 -1,761 Descending FlightAware
11:28PM 38.5610 -78.4030 73° East 397 457 17,800 -2,056 Descending FlightAware
11:29PM 38.5910 -78.2780 73° East 392 451 15,600 -1,833 Descending FlightAware
11:30PM 38.6230 -78.1710 69° East 368 423 14,500 -1,326 Descending FlightAware
11:31PM 38.6410 -78.0870 75° East 375 432 13,500 -1,663 Descending FlightAware
11:32PM 38.6530 -77.9520 83° East 370 426 11,700 -1,487 Descending FlightAware
11:33PM 38.6630 -77.8380 84° East 334 384 10,700 -867 Descending FlightAware
11:33PM 38.6670 -77.7840 85° East 312 359 10,500 -300 Descending FlightAware
11:34PM 38.6740 -77.6920 84° East 299 344 10,300 -453 Descending FlightAware
11:35PM 38.6810 -77.5970 85° East 295 339 9,700 -692 Descending FlightAware
11:35PM 38.6850 -77.5550 83° East 292 336 9,400 -808 Descending FlightAware
11:36PM 38.6890 -77.5080 84° East 290 334 9,000 -818 Descending FlightAware
11:36PM 38.6910 -77.4810 85° East 289 333 8,800 -923 Descending FlightAware
11:36PM 38.6940 -77.4430 84° East 282 325 8,400 -1,269 Descending FlightAware
11:37PM 38.6980 -77.3950 84° East 277 319 7,700 -1,125 Descending FlightAware
11:37PM 38.7010 -77.3640 83° East 262 302 7,500 -558 Descending FlightAware
11:37PM 38.7030 -77.3290 86° East 244 281 7,300 -1,067 Descending FlightAware
11:38PM 38.7050 -77.2990 85° East 234 269 6,700 -1,714 Descending FlightAware
11:38PM 38.7080 -77.2520 85° East 225 259 5,700 -1,900 Descending FlightAware
11:39PM 38.7070 -77.2200 92° East 229 264 4,800 -1,765 Descending FlightAware
11:39PM 38.7050 -77.1850 94° East 226 260 4,200 -1,333 Descending FlightAware
11:40PM 38.7050 -77.1600 90° East 217 250 3,800 -1,320 Descending FlightAware
11:40PM 38.7110 -77.1230 78° East 209 241 3,100 -1,322 Descending FlightAware
11:41PM 38.7210 -77.0920 68° East 187 215 2,500 -1,300 Descending FlightAware
11:41PM 38.7360 -77.0640 56° Northeast 166 191 1,800 -1,048 Descending FlightAware
11:42PM 38.7510 -77.0470 41° Northeast 133 153 1,400 -764 Descending FlightAware
11:42PM 38.7640 -77.0380 28° Northeast 125 144 1,100 -612 Descending FlightAware
11:42PM 38.7780 -77.0340 13° North 125 144 900 -720 Descending FlightAware
11:43PM 38.7920 -77.0320 North 123 142 500 -800 Descending FlightAware
11:43PM 38.8040 -77.0330 356° North 122 140 300 -600 Descending FlightAware
11:44PM 38.8170 -77.0340 357° North 128 147 -720 Descending FlightAware
11:44PM 38.8300 -77.0350 357° North 128 147  Level FlightAware